Regional Weather Roundup
Issued by NWS Grand Forks, ND

Home | Current Version | Previous Version | Graphics & Text | Print | Product List | Glossary On
Versions: 1 2 3 4 5 6 7 8 9 10 11 12 13 14 15 16 17 18 19 20 21 22 23 24 25 26 27 28 29 30 31 32 33 34 35 36 37 38 39 40 41 42 43 44 45 46 47 48 49 50
000
ASUS43 KFGF 091431
RWRFGF
PRAIRIE TO PINES  WEATHER ROUNDUP
NATIONAL WEATHER SERVICE EASTERN NORTH DAKOTA/GRAND FORKS ND
800 AM CST TUE FEB 09 2016

 **SATELLITE DATA USED TO AUGMENT SKY COVER AT AUTOMATED STATIONS**
 *****  WEATHER ACROSS EASTERN NORTH DAKOTA  *****

CITY           SKY/WX    TMP DP  RH WIND       PRES   REMARKS
GRAND FORKS    CLOUDY    11   4  73 N14       30.30R WCI  -5
GRAND FRKS AFB CLOUDY    10   3  74 N9        30.29R WCI  -3
DEVILS LAKE    CLOUDY    15  10  80 N3        30.26R
FARGO          CLOUDY    11   4  73 N10       30.28R WCI  -3
WAHPETON ARPT  CLOUDY    10   3  72 N8        30.28R WCI  -1
$$

 ***** WEATHER ACROSS CENTRAL AND WESTERN NORTH DAKOTA  *****

CITY           SKY/WX    TMP DP  RH WIND       PRES   REMARKS
BISMARCK       CLOUDY    25  12  58 SW5       30.26S WCI  19
MINOT          CLOUDY    26   9  48 SW10      30.21S WCI  16
JAMESTOWN      CLOUDY    16   9  74 NW7       30.24S WCI   6
MINOT AFB      CLOUDY    23  11  62 CALM      30.21F
GARRISON         N/A     22  12  65 S6        30.22S WCI  14
WILLISTON      CLOUDY    29  23  78 CALM      30.21R
DICKINSON      MOCLDY    20  15  81 S5        30.15F WCI  13
HETTINGER      CLOUDY    26  17  68 VRB3      30.20S
$$

 *****  OTHER AIRPORT OBSERVATIONS IN OUR AREA  *****

CITY           SKY/WX    TMP DP  RH WIND       PRES   REMARKS
WALHALLA       FAIR       9   9 100 N9        30.32R WCI  -5
GRAFTON AIRPOR CLOUDY     9   3  78 N14       30.34R WCI  -8
VALLEY CITY AR CLOUDY    14   9  79 N8        30.26S WCI   3
CANDO          CLOUDY    16  10  79 CALM      30.26F
CAVALIER APRT  CLOUDY     9   5  85 N10       30.32R WCI  -6
GWINNER        CLOUDY    18  10  73 N8        30.26S WCI   7
SHEYENNE NWR     N/A     12   4  70 N7        29.95S WCI   1
ROLLA          CLOUDY    18  10  73 NE3       30.22S
 ***** THE ABOVE OBSERVATIONS ARE NON NWS ARE NOT QUALITY
       CONTROLLED AND MAY MIS-REPORT RAIN FOR SNOW...
$$

  *****  WEATHER ACROSS NORTHERN MINNESOTA  *****

CITY           SKY/WX    TMP DP  RH WIND       PRES   REMARKS
FLAG ISLAND    CLOUDY     0  -4  85 NW9       30.21R WCI -16
WARROAD        CLOUDY    -2  -8  78 NW5       30.24R WCI -12
ROSEAU         CLOUDY    -6  -9  84 NW3       30.25R
HALLOCK        CLOUDY     7   1  78 N14       30.30R WCI -10
THF RVR FALLS  NOT AVBL
BAUDETTE       CLOUDY    -5 -10  79 NW7       30.19R WCI -19
WASKISH        CLOUDY    -8 -11  84 W6        30.19R WCI -21
CROOKSTON      PTCLDY     7   1  78 N18       30.28S WCI -12
STEPHEN NDAWN    N/A      7   1  78 N13         N/A  WCI  -9
GREENBUSH NDAW   N/A      1   0  92 NW10        N/A  WCI -14
$$
  *****  WEATHER ACROSS CENTRAL AND WEST MINNESOTA  *****

CITY           SKY/WX    TMP DP  RH WIND       PRES   REMARKS
FOSSTON        CLOUDY     0  -4  85 NW9       30.22R WCI -16
BEMIDJI        FLURRIES  -7 -11  84 NW7       30.17R WCI -22
PARK RAPIDS    CLEAR     -1  -6  79 NW9       30.14S WCI -16
ELBOW LAKE     CLOUDY     4   0  82 NW13G22   30.22S WCI -13
WADENA         CLEAR      0  -6  78 NW7       30.17R WCI -13
DETROIT LAKES  CLOUDY     3   1  92 NW10      30.21R WCI -12
MOORHEAD       PTCLDY     9   3  78 N12       30.28R WCI  -6
FERGUS FALLS   CLOUDY     3   0  85 NW16      30.27S WCI -16
MORRIS MN      PTCLDY     5   0  78 NW17      30.21S WCI -14
STAPLES        CLEAR      0  -6  78 NW10      30.15R WCI -17
$$
  *****  WEATHER ELSEWHERE ACROSS MINNESOTA  *****

CITY           SKY/WX    TMP DP  RH WIND       PRES   REMARKS
DULUTH         PTCLDY    -2  -8  76 NW9       30.00S WCI -18
INTRNTL FALLS  CLOUDY    -7 -11  83 NW8       30.14R WCI -23
ELY            CLOUDY     0  -6  78 N9G18     30.02R WCI -16
CLOQUET        MOCLDY     0  -6  78 NW13      30.03S WCI -18
WHEATON        CLOUDY    10   3  72 NW13      30.28S WCI  -5
BRAINERD       CLEAR      0  -6  76 N15       30.13R WCI -19
HIBBING        MIX PCPN  -3  -7  82 NW17      30.06R WCI -24
ALEXANDRIA     CLEAR      2  -3  80 NW14      30.16R WCI -16
SAINT CLOUD    CLEAR      3  -4  72 NW17G24   30.13R WCI -17
MINNEAPOLIS    PTCLDY     5  -2  72 NW18      30.10R WCI -15
$$

  *****  WEATHER ACROSS SOUTH DAKOTA  *****

CITY           SKY/WX    TMP DP  RH WIND       PRES   REMARKS
SIOUX FALLS    PTCLDY     6  -1  73 NW12      30.23R WCI  -9
BROOKINGS      NOT AVBL
WATERTOWN      CLOUDY     4  -2  76 NW9       30.21R WCI -10
HURON          CLOUDY    14   8  77 N12       30.29R WCI   0
SISSETON         N/A     10   5  80 N13       30.25S WCI  -5
ABERDEEN       CLOUDY    14   6  70 N3        30.29R
MITCHELL       CLOUDY    15   9  76 NW10      30.30S WCI   2
PIERRE         CLOUDY    23   9  55 N6        30.29S WCI  16
MOBRIDGE       CLOUDY    23  12  62 W3        30.25R
RAPID CITY     CLEAR     22  15  75 CALM      30.21S
$$

  *****  SOME WEATHER IN NEARBY STATES *****

CITY           SKY/WX    TMP DP  RH WIND       PRES   REMARKS
GLASGOW MT     CLOUDY    30  26  85 W3        30.23F
GREAT FALLS MT CLEAR     40  28  62 SW15      30.30F
CHEYENNE WY    CLEAR     35  19  52 NW12      30.31R
SCOTTSBLUFF NE CLEAR     28  22  78 NW10      30.26F WCI  19
OMAHA NE       PTCLDY    13   6  74 NW17      30.20R WCI  -4
DES MOINES IA  PTCLDY    10   1  67 NW22G29   30.11R WCI -10
DAVENPORT IA   CLEAR     11   3  70 NW15      29.94R WCI  -5
CHICAGO IL     LGT SNOW  15   9  76 NW14      29.81S WCI   0
EAU CLAIRE WI  PTCLDY     3  -5  69 NW12      30.00R WCI -13
LA CROSSE WI   PTCLDY     7  -2  66 NW14      30.00R WCI -10
$$

  *****  SOME NATIONAL WEATHER *****

CITY           SKY/WX    TMP DP  RH WIND       PRES   REMARKS
LA GUARDIA NY  CLOUDY    28  21  74 NE14      29.67S WCI  17
RALEIGH NC     CLOUDY    37  30  75 W5        29.66R
ATLANTA GA     FLURRIES  33  20  58 W10       29.85R WCI  25
NEW ORLEANS LA MOSUNNY   44  19  36 W13       30.19R
OKLAHOMA CITY  PTCLDY    38  13  35 NW8       30.25R
ALBUQUERQUE NM CLEAR     30  21  69 N7        30.42R WCI  23
SALT LAKE CITY PTCLDY    26  22  84 CALM      30.60S FOG
LOS ANGELES CA CLEAR     63  25  23 CALM      30.13R
BOISE ID       CLOUDY    27  23  86 S7        30.60S WCI  19
SEATTLE WA     FOG       39  37  93 SE6       30.19F VSB 1/2
$$

*** WEATHER ACROSS MANITOBA...SASKATCHEWAN AND ONTARIO ***
                ***ONTARIO***

CITY           SKY/WX    TMP DP  RH WIND       PRES   REMARKS
GERALDTON      LGT SNOW  -6 -11  77 N13       29.91R DRFTSNOWWCI -25
THUNDER BAY    MOCLDY     1  -8  66 NW15G22   30.00R WCI -18
SIOUX LOOKOUT  FLURRIES  -4  -9  77 N6        30.10R WCI -16
TORONTO        FLURRIES  27  23  86 NE7       29.51S WCI  19
BIG TROUT LK   FLURRIES -20 -26  76 NW10      30.18  WCI -41
PICKLE LAKE    CRYSTALS  -9 -17  70 N3        30.07R
DRYDEN         CLEAR     -9 -15  77 N3        30.11R
KENORA         MOCLDY    -6 -11  77 N7        30.17R WCI -20
$$
                *** MANITOBA***

CITY           SKY/WX    TMP DP  RH WIND       PRES   REMARKS
BRANDON        FLURRIES  12   7  79 E12       30.27R WCI  -2
DAUPHIN        PTCLDY     5   1  85 NE6       30.34R WCI  -6
ISLAND LAKE    MOCLDY   -22 -27  76 NW6       30.33S WCI -38
PILOT MOUND      N/A     12   5  73 N7          N/A  WCI   2
THE PAS        PTCLDY   -15 -18  84 CALM      30.41R
THOMPSON       PTCLDY   -31 -36  75 VRB2      30.43R
WINNIPEG       MOCLDY     1  -4  78 N12       30.34R WCI -15
LYNN LAKE      CLOUDY   -33 -38  75 W5        30.39R WCI -48
CHURCHILL      CRYSTALS -26 -33  68 NW14      30.45S DRFTSNOWWCI -51
GILLAM         CLEAR    -29 -35  75 W7        30.40R WCI -48
$$
                ***SASKATCHEWAN***

CITY           SKY/WX    TMP DP  RH WIND       PRES   REMARKS
ESTEVAN        CLOUDY    19  18  93 NE3       30.20R
KINDERSLEY     CLOUDY    28  27  93 SE8       30.15F WCI  20
LLOYDMINSTER   MOCLDY    27  25  93 S5        30.10F WCI  21
PRINCE ALBERT  FLURRIES  16   9  73 E6        30.28R WCI   7
REGINA         CLOUDY    21  21 100 CALM      30.21F
YORKTON        CLOUDY    14  10  85 NE8       30.23S WCI   3
N. BATTLEFORD  CLOUDY    28 N/A N/A E8        30.18S WCI  20
LA RONGE       MOCLDY     1  -4  78 E6        30.30F WCI -10
SASKATOON      FLURRIES  25  21  86 SE5       30.22F WCI  19
SWIFT CURRENT  CLOUDY    32  28  86 SW6       30.17F
$$
NOTE: THESE ARE AUTOMATED STATIONS WITH LIMITED QUALITY CONTROL
      "FAIR" INDICATES FEW OR NO CLOUDS BELOW 12,000 FEET WITH NO
      SIGNIFICANT WEATHER AND/OR OBSTRUCTIONS TO VISIBILITY.
      SKY/WX - SKY CONDITION AND SIGNIFICANT WEATHER.
      TMP - AIR TEMPERATURE.    DP   - DEWPOINT TEMPERATURE.
      RH  - RELATIVE HUMIDITY.  PRES - PRESSURE.
      HX  - HEAT INDEX.         WCI  - WIND CHILL INDEX.
$



USA.gov is the U.S. government's official web portal to all federal, state and local government web resources and services.